Location: Austin
(30.3000°N, 97.7500°W)
Time: 02:10:07
(UTC-06:00)

Tiangong - Pass Details

Date: 20 November 2023
Orbit: 373 x 383 km, 41.5° (Epoch: 04 December)

Event Time Altitude Azimuth Distance (km) Brightness Sun altitude
Rises 18:48:07 0° 260° (W) 2,247 3.6 -16.4°
Reaches altitude 10° 18:50:20 10° 271° (W) 1,394 1.9 -16.8°
Maximum altitude 18:53:10 31° 336° (NNW) 698 -0.8 -17.4°
Enters shadow 18:53:55 27° 4° (N) 765 -0.8 -17.6°
